[[{"header":{"parameterUnit":"m.s-1","parameterCategory":1,"la1":30.2991,"la2":30.254,"lo1":-89.0895,"lo2":-89.0444,"dy":0.0017,"dx":0.0017,"nx":28,"ny":28,"refTime":"2024-08-13T21:00:00:Z","depth":0,"parameterNumber":2,"parameterNumberName":"U-component_of_WINDS"},"data":[0,0,0,0,0,0,0,0,0,0,0,0,0,0,0,0,0,0,0,0,0,0,0,0,0,0,0,0,0,0,0,0,0,0,0,0,0,0,0,0,0,0,0,0,0,0,0,0,0,0,0,0,0,0,0,0,0,0,2.5679,2.5681,0,2.5823,2.5825,2.5827,2.5823,2.5821,2.582,2.5818,2.5966,2.5972,2.5978,0,0,0,0,0,0,0,0,0,0,0,0,0,2.5399,2.5405,2.5679,2.5681,2.5683,2.5823,2.5825,2.5827,2.5824,2.5821,2.5819,2.5817,2.5965,2.5971,2.5978,0,0,0,0,0,0,0,0,0,0,0,0,0,2.553,2.5406,2.5679,2.5698,2.5701,2.5823,2.5825,2.5828,2.5824,2.5821,2.5818,2.5816,2.5962,2.5971,2.5979,2.6092,0,0,2.6006,2.601,0,0,0,0,0,0,0,0,2.5523,2.554,2.5693,2.5697,2.5701,2.5802,2.5781,2.5916,2.5825,2.5778,2.5818,2.5814,2.5914,2.5927,2.596,2.6099,2.6105,2.6007,2.6012,2.6016,2.6018,0,0,0,0,0,0,0,2.5514,2.5534,2.5736,2.5695,2.57,2.5699,2.5714,2.5807,2.5861,2.5781,2.5782,2.5799,2.5916,2.5952,2.5964,2.6107,2.6006,2.6014,2.6019,2.6023,2.6342,2.6345,0,0,0,0,0,0,2.5501,2.5527,2.5732,2.5741,2.5602,2.5706,2.5723,2.5773,2.586,2.587,2.5801,2.5798,2.5939,2.5954,2.5969,2.6104,2.6016,2.6024,2.6029,2.6339,2.6343,2.6347,0,0,0,0,0,0,2.5495,2.5519,2.5726,2.5634,2.566,2.5714,2.577,2.5777,2.5813,2.5874,2.5884,2.5828,2.5937,2.5957,2.6061,2.6109,2.6028,2.6035,2.6335,2.634,2.6345,2.6377,0,0,0,0,0,0,2.5487,2.5517,2.556,2.5635,2.5665,2.5815,2.5773,2.5782,2.5828,2.5826,2.5902,2.5912,2.5936,2.6048,2.6069,2.612,2.6042,2.6331,2.6337,2.6343,2.6372,2.6382,2.6392,0,0,0,0,0,2.5477,2.5565,2.5563,2.5587,2.5721,2.5818,2.5835,2.5861,2.5832,2.5876,2.5915,2.591,2.6101,2.6058,2.6083,2.6137,2.6328,2.6336,2.6343,2.6367,2.638,2.6391,0,0,0,0,0,0,2.5496,2.5575,2.5574,2.5688,2.5746,2.5817,2.5874,2.5874,2.5942,2.5936,2.5965,2.5983,2.6086,2.6122,2.6073,2.6249,2.6211,2.6223,2.6221,2.6234,2.6244,2.6232,2.6049,0,0,0,0,0,2.5513,2.5586,2.5651,2.5746,2.5775,2.5819,2.5863,2.5877,2.5938,2.5963,2.601,2.607,2.6143,2.6191,2.6262,2.6377,2.6393,2.6426,2.6436,2.6444,2.6454,2.6515,2.653,2.6371,2.6371,2.6371,0,0,2.555,2.5602,2.5647,2.5751,2.5798,2.5871,2.584,2.592,2.5975,2.5976,2.6075,2.6112,2.618,2.629,2.634,2.6323,2.6501,2.6453,2.6459,2.6465,2.6524,2.6539,2.6553,2.6376,2.6375,2.6374,0,0,2.5655,2.5702,2.5785,2.5832,2.5903,2.5931,2.5951,2.6022,2.6046,2.6146,2.6147,2.6213,2.6339,2.6387,2.6428,2.6549,2.6546,2.6571,2.6622,2.6682,2.6694,2.6705,2.6746,2.6761,2.6581,2.6582,2.6582,0,2.5692,2.5803,2.5828,2.5908,2.5953,2.5956,2.6039,2.6084,2.6174,2.6205,2.6184,2.6341,2.6387,2.6507,2.6536,2.657,2.6592,2.6562,2.669,2.6702,2.6713,2.6752,2.6768,2.6584,2.6584,2.6583,2.6583,0,2.5844,2.5921,2.598,2.6065,2.6117,2.6199,2.6235,2.6284,2.6294,2.6324,2.6425,2.6481,2.6562,2.6592,2.6603,2.6712,2.6699,2.6684,2.6647,2.673,2.6767,2.6783,2.6588,2.6587,2.6586,2.6585,0,0,2.5966,2.6062,2.6083,2.6121,2.6198,2.6258,2.6339,2.6417,2.6458,2.652,2.6588,2.6693,2.6679,2.6726,2.6741,2.6794,2.6883,2.6772,2.6774,2.6789,2.7005,2.7014,2.7031,2.6882,2.6885,2.6887,2.6998,0,2.6077,2.622,2.6243,2.6368,2.6439,2.6441,2.6511,2.6566,2.6596,2.666,2.6693,2.6767,2.6744,2.6771,2.6823,2.6861,2.6926,2.6853,2.6943,2.6946,2.6924,2.7051,2.7062,2.7164,2.7013,2.7016,2.7018,0,2.6226,2.629,2.6422,2.6487,2.6517,2.658,2.6652,2.6714,2.6775,2.6793,2.6844,2.6853,2.6935,2.6895,2.7008,2.6958,2.6996,2.702,2.7025,2.7033,2.6986,2.7061,2.7198,2.7212,2.7041,2.7039,2.7038,0,2.6299,2.6418,2.6512,2.6544,2.6623,2.6667,2.6702,2.676,2.6805,2.6868,2.6897,2.697,2.701,2.7065,2.7093,2.7061,2.7204,2.7166,2.7221,2.722,2.725,2.7247,2.7393,2.7277,2.7277,2.7277,2.7276,0,2.6419,2.6499,2.6545,2.6602,2.6691,2.6717,2.6804,2.6838,2.689,2.6953,2.6961,2.702,2.7054,2.7118,2.7141,2.723,2.7249,2.7265,2.7269,2.7263,2.7261,2.7288,2.7281,2.7281,2.728,2.7279,2.7278,0,2.6515,2.6549,2.6651,2.6717,2.6735,2.6798,2.6854,2.6909,2.6938,2.7018,2.7038,2.7085,2.716,2.7194,2.7288,2.7302,2.7404,2.7404,2.7383,2.7384,2.7436,2.7429,2.7602,2.7625,2.7496,2.7497,2.7498,0,2.659,2.6651,2.6722,2.6765,2.6801,2.687,2.6915,2.6942,2.6989,2.7062,2.7108,2.7184,2.7245,2.7366,2.7408,2.7479,2.748,2.7536,2.7491,2.7482,2.7479,2.7474,2.7479,2.7543,2.7545,2.7546,2.7547,0,2.6717,2.673,2.6795,2.6865,2.6918,2.6975,2.7031,2.7065,2.7101,2.7153,2.723,2.7277,2.7372,2.7446,2.752,2.7555,2.7557,2.756,2.7576,2.757,2.7554,2.7561,2.7403,2.7556,2.7555,2.7554,2.7554,2.7553,2.6803,2.6856,2.6914,2.6986,2.703,2.7081,2.7135,2.7171,2.7235,2.7313,2.7326,2.7407,2.7465,2.7563,2.7602,2.7665,2.7652,2.7675,2.7681,2.7686,2.7688,2.7545,2.7679,2.7679,2.7679,2.7678,2.7678,0,2.6929,2.6966,2.7031,2.7107,2.7163,2.7159,2.722,2.7266,2.7337,2.7391,2.7451,2.7538,2.7609,2.7656,2.7728,2.777,2.7772,2.7788,2.7784,2.7792,2.7697,2.7675,2.7785,2.7785,2.7785,2.7785,2.7784,2.7784,2.7001,2.709,2.711,2.722,2.7257,2.7336,2.7371,2.7417,2.746,2.7556,2.7615,2.7645,2.7695,2.7771,2.7836,2.7848,2.7873,2.7889,2.79,2.781,2.7799,2.7788,2.7768,2.7895,2.7895,2.799,2.799,2.7991]},{"header":{"parameterUnit":"m.s-1","parameterCategory":1,"la1":30.2991,"la2":30.254,"lo1":-89.0895,"lo2":-89.0444,"dy":0.0017,"dx":0.0017,"nx":28,"ny":28,"refTime":"2024-08-13T21:00:00:Z","depth":0,"parameterNumber":3,"parameterNumberName":"V-component_of_WINDS"},"data":[0,0,0,0,0,0,0,0,0,0,0,0,0,0,0,0,0,0,0,0,0,0,0,0,0,0,0,0,0,0,0,0,0,0,0,0,0,0,0,0,0,0,0,0,0,0,0,0,0,0,0,0,0,0,0,0,0,0,3.2806,3.2806,0,3.2797,3.2797,3.2797,3.2714,3.2712,3.271,3.2708,3.2699,3.2701,3.2703,0,0,0,0,0,0,0,0,0,0,0,0,0,3.275,3.2751,3.2806,3.2806,3.2805,3.2797,3.2797,3.2797,3.2714,3.2712,3.2709,3.2707,3.2699,3.2701,3.2703,0,0,0,0,0,0,0,0,0,0,0,0,0,3.2761,3.2751,3.2806,3.2763,3.2759,3.2797,3.2797,3.2797,3.2715,3.2711,3.2708,3.2705,3.2698,3.2701,3.2703,3.2782,0,0,3.2711,3.2712,0,0,0,0,0,0,0,0,3.276,3.2763,3.277,3.2766,3.2762,3.2753,3.2774,3.2792,3.2715,3.2732,3.2708,3.2704,3.272,3.2721,3.2726,3.2781,3.2781,3.2711,3.2713,3.2714,3.2715,0,0,0,0,0,0,0,3.276,3.2763,3.2802,3.277,3.2765,3.2744,3.2742,3.2777,3.2743,3.273,3.2724,3.2724,3.2717,3.2723,3.2725,3.2781,3.2711,3.2714,3.2715,3.2716,3.2897,3.29,0,0,0,0,0,0,3.2765,3.2763,3.2802,3.2802,3.2753,3.2748,3.2746,3.2759,3.2743,3.2737,3.2727,3.272,3.2721,3.2722,3.2724,3.2813,3.2714,3.2716,3.2718,3.2894,3.2898,3.2901,0,0,0,0,0,0,3.2764,3.2769,3.2803,3.2781,3.2783,3.2752,3.2768,3.2761,3.2767,3.274,3.2734,3.2739,3.2718,3.2721,3.2767,3.2811,3.2718,3.272,3.289,3.2895,3.2899,3.2992,0,0,0,0,0,0,3.2763,3.2769,3.2799,3.2782,3.2785,3.2847,3.2771,3.2763,3.2771,3.2763,3.275,3.2745,3.2716,3.2764,3.277,3.2813,3.2722,3.2886,3.2892,3.2898,3.2985,3.2999,3.3012,0,0,0,0,0,3.2761,3.2826,3.2801,3.2806,3.2822,3.2849,3.2851,3.2816,3.2775,3.2804,3.2787,3.2746,3.2806,3.2769,3.2775,3.282,3.2883,3.289,3.2897,3.2979,3.2997,3.3012,0,0,0,0,0,0,3.2851,3.2823,3.2795,3.2857,3.2856,3.2835,3.2871,3.2836,3.2847,3.2838,3.2794,3.2792,3.2845,3.2837,3.2797,3.2894,3.2837,3.2846,3.2897,3.2914,3.2927,3.2927,3.2724,0,0,0,0,0,3.2877,3.2902,3.2877,3.2934,3.2935,3.2903,3.2914,3.2887,3.2884,3.2883,3.2869,3.2868,3.2886,3.29,3.2915,3.2983,3.2979,3.3017,3.3031,3.3042,3.305,3.3083,3.31,3.2925,3.2925,3.2925,0,0,3.2933,3.2922,3.294,3.2952,3.2948,3.2974,3.2904,3.2935,3.2953,3.2888,3.293,3.292,3.2916,3.2973,3.2998,3.2969,3.3097,3.3051,3.3061,3.3062,3.3093,3.3109,3.3124,3.293,3.2929,3.2929,0,0,3.3048,3.3043,3.3088,3.3085,3.3079,3.3057,3.3068,3.3052,3.3043,3.3085,3.3035,3.3057,3.309,3.3088,3.3092,3.3204,3.3166,3.321,3.3281,3.3314,3.3328,3.334,3.3378,3.3392,3.3218,3.3219,3.3219,0,3.3118,3.3156,3.3116,3.3149,3.3155,3.3097,3.3142,3.3141,3.3141,3.3146,3.3113,3.3152,3.3145,3.32,3.3227,3.3233,3.3243,3.3211,3.3329,3.334,3.3351,3.3387,3.3402,3.3224,3.3223,3.3223,3.3222,0,3.3241,3.3268,3.3305,3.3305,3.3315,3.3355,3.332,3.3335,3.3307,3.3288,3.3331,3.332,3.3332,3.3343,3.3316,3.3393,3.3375,3.3337,3.3278,3.3374,3.3407,3.342,3.3232,3.323,3.3228,3.3227,0,0,3.3413,3.3389,3.3403,3.3402,3.339,3.341,3.3446,3.3456,3.3469,3.3471,3.3499,3.3527,3.3491,3.3495,3.3467,3.3496,3.3583,3.3453,3.3453,3.3477,3.3666,3.3694,3.3711,3.3558,3.356,3.3562,3.3666,0,3.3522,3.3582,3.3546,3.3611,3.3633,3.3577,3.3608,3.3604,3.3588,3.3604,3.3586,3.3606,3.3557,3.3559,3.3585,3.3567,3.362,3.3559,3.3583,3.3584,3.3585,3.3728,3.3759,3.3857,3.3679,3.3681,3.3682,0,3.3658,3.3663,3.373,3.3711,3.372,3.3748,3.3754,3.3771,3.3765,3.375,3.3754,3.3718,3.3752,3.3695,3.3739,3.3699,3.3706,3.3699,3.3701,3.3701,3.3639,3.3731,3.3887,3.3902,3.3703,3.3701,3.37,0,3.3774,3.3799,3.3841,3.3841,3.3822,3.3843,3.3835,3.3826,3.3834,3.3839,3.3843,3.3852,3.3857,3.3865,3.3833,3.3795,3.3881,3.3822,3.3869,3.387,3.3889,3.3889,3.4048,3.3897,3.3897,3.3896,3.3896,0,3.3898,3.3941,3.3892,3.3918,3.3964,3.3922,3.3969,3.3955,3.3947,3.3969,3.3922,3.3943,3.39,3.3917,3.3892,3.3932,3.3935,3.3924,3.3916,3.3927,3.3928,3.3931,3.3923,3.39,3.3899,3.3899,3.3898,0,3.4036,3.4005,3.4047,3.4024,3.4019,3.4054,3.4034,3.4057,3.4036,3.4065,3.4069,3.4037,3.4055,3.4023,3.4038,3.402,3.4076,3.4058,3.4077,3.4072,3.412,3.4116,3.4286,3.4306,3.4144,3.4145,3.4146,0,3.4117,3.4148,3.4128,3.4138,3.4133,3.4152,3.4159,3.4119,3.4128,3.4122,3.4146,3.4159,3.4167,3.4198,3.4176,3.4186,3.4168,3.4227,3.4169,3.4179,3.4167,3.4165,3.4167,3.4239,3.4241,3.4242,3.4244,0,3.4263,3.4246,3.4257,3.4263,3.4273,3.4276,3.4276,3.4288,3.4245,3.4258,3.4274,3.4281,3.4294,3.4308,3.4312,3.4305,3.4267,3.4262,3.4273,3.4284,3.4293,3.4287,3.4108,3.4258,3.4257,3.4256,3.4255,3.4254,3.4374,3.4398,3.4386,3.44,3.4395,3.4396,3.4415,3.4397,3.441,3.4416,3.4392,3.4414,3.4406,3.4408,3.4404,3.442,3.4394,3.4411,3.4415,3.4419,3.4426,3.4292,3.4421,3.4421,3.442,3.442,3.442,0,3.4516,3.4505,3.4518,3.4518,3.4529,3.4492,3.4489,3.4501,3.4521,3.4515,3.4524,3.4543,3.4555,3.4534,3.4543,3.456,3.4543,3.4563,3.4561,3.456,3.445,3.4439,3.4577,3.4577,3.4577,3.4577,3.4577,3.4577,3.4591,3.4629,3.461,3.4645,3.4634,3.4654,3.4655,3.4655,3.465,3.4673,3.4682,3.4668,3.4656,3.4663,3.4673,3.4666,3.4671,3.4698,3.4685,3.4583,3.4568,3.4553,3.4542,3.47,3.47,3.4793,3.4794,3.4795]}]]